Home   Weather   Brisbane   Past weeks

Flag for Australia Past Weather in Brisbane, Queensland, Australia — Yesterday and Last 2 Weeks

Now
73 °F

Passing clouds.


Feels Like: 76 °F
Forecast: 69 / 80 °F
Wind: 7 mph from Southeast

Location: Brisbane Airport M. O

Current Time: Dec 11, 2016 at 9:54:55 pm

Latest Report: Dec 11, 2016 at 9:00 pm


Visibility: N/A

Pressure: 30.15 "Hg

Humidity: 61%

Dew Point: 59 °F

Location of BrisbaneLocation

Past Weather in Brisbane — Graph

°F

Brisbane Temperature Yesterday

Maximum temperature yesterday: 79 °F (at 11:30 am)
Minimum temperature yesterday: 72 °F (at 4:30 am)
Average temperature yesterday: 74 °F

High & Low Weather Summary for the Past Weeks

 TemperatureHumidityPressure
High82 °F (Nov 30, 12:30 pm)94% (Nov 27, 2:00 am)30.18 "Hg (Nov 27, 2:00 am)
Low66 °F (Dec 1, 4:30 am)45% (Nov 29, 12:30 pm)29.71 "Hg (Dec 1, 3:00 pm)
Average76 °F75%29.92 "Hg
* Reported Nov 26 8:00 pm — Dec 11 8:30 pm, Brisbane, Weather by CustomWeather, © 2016

Note: Actual official high and low records may vary slightly from our data, if they occured in-between our weather recording intervals... More about our weather records

Advertising

Brisbane Weather History for the Previous 24 Hours

Scroll right to see more
 ConditionsComfort  
Time TempWeatherWind HumidityBarometerVisibility
8:30 pm
Sun, Dec 11
72 °FClear.8 mph65%30.15 "Hg10 mi
8:00 pm73 °FPassing clouds.8 mph61%30.15 "HgN/A
7:30 pm73 °FPassing clouds.8 mph61%30.15 "HgN/A
7:00 pm73 °FPassing clouds.8 mph61%30.15 "HgN/A
6:30 pm73 °FScattered clouds.7 mph57%30.15 "HgN/A
6:00 pm73 °FBroken clouds.9 mph57%30.15 "HgN/A
5:30 pm73 °FBroken clouds.8 mph61%30.12 "HgN/A
5:00 pm73 °FBroken clouds.8 mph57%30.12 "HgN/A
4:30 pm75 °FBroken clouds.8 mph50%30.12 "HgN/A
4:00 pm73 °FBroken clouds.8 mph57%30.12 "HgN/A
3:30 pm75 °FBroken clouds.8 mph54%30.12 "HgN/A
3:00 pm75 °FBroken clouds.10 mph50%30.12 "HgN/A
2:30 pm75 °FBroken clouds.10 mph50%30.12 "HgN/A
2:00 pm75 °FBroken clouds.13 mph54%30.12 "HgN/A
1:00 pm77 °FPartly sunny.10 mph51%30.15 "HgN/A
12:30 pm77 °FBroken clouds.9 mph47%30.15 "HgN/A
12:00 pm77 °FBroken clouds.10 mph51%30.15 "HgN/A
11:00 am77 °FBroken clouds.12 mph47%30.15 "HgN/A
10:30 am77 °FBroken clouds.10 mph47%30.15 "HgN/A
10:00 am75 °FBroken clouds.10 mph54%30.15 "HgN/A
9:00 am75 °FBroken clouds.9 mph50%30.18 "HgN/A
8:30 am75 °FBroken clouds.8 mph57%30.18 "HgN/A
8:00 am73 °FBroken clouds.8 mph61%30.15 "HgN/A
7:30 am73 °FPartly sunny.6 mph61%30.15 "HgN/A
7:00 am72 °FPartly sunny.6 mph69%30.15 "HgN/A
6:30 am70 °FBroken clouds.6 mph73%30.15 "HgN/A
6:00 am70 °FBroken clouds.7 mph73%30.12 "HgN/A
5:00 am68 °FScattered clouds.6 mph78%30.12 "HgN/A
4:30 am68 °FPassing clouds.6 mph78%30.12 "HgN/A
4:00 am72 °FPassing clouds.6 mph65%30.09 "HgN/A
3:30 am72 °FPassing clouds.7 mph65%30.09 "HgN/A
3:00 am72 °FPassing clouds.8 mph65%30.09 "HgN/A
2:00 am72 °FPassing clouds.7 mph69%30.12 "HgN/A
1:30 am72 °FPassing clouds.8 mph69%30.12 "HgN/A
1:00 am72 °FPassing clouds.7 mph69%30.12 "HgN/A
12:30 am72 °FPassing clouds.8 mph65%30.12 "HgN/A
12:00 am72 °FPassing clouds.8 mph69%30.15 "HgN/A
11:30 pm
Sat, Dec 10
72 °FPassing clouds.9 mph69%30.15 "HgN/A
11:00 pm72 °FPassing clouds.9 mph69%30.15 "HgN/A
10:30 pm72 °FPassing clouds.10 mph69%30.15 "HgN/A
10:00 pm73 °FPassing clouds.9 mph65%30.15 "HgN/A
9:30 pm73 °FPartly cloudy.9 mph65%30.15 "HgN/A
9:00 pm73 °FPartly cloudy.12 mph65%30.15 "HgN/A
Weather by CustomWeather, © 2016

See weather overviewHow to use our weather pages